Weather Roundup
Issued by NWS Chicago, IL

Home | Current Version | Previous Version | Graphics & Text | Print | Product List | Glossary On
Versions: 1 2 3 4 5 6 7 8 9 10 11 12 13 14 15 16 17 18 19 20 21 22 23 24 25 26 27 28 29 30 31 32 33 34 35 36 37 38 39 40 41 42 43 44 45 46 47 48 49 50
806
NZUS59 KLOT 240508
HRRLOT

CHICAGO AREA WEATHER ROUNDUP
NATIONAL WEATHER SERVICE CHICAGO/ROMEOVILLE IL
1100 PM CST FRI FEB 23 2018

NOTE: "FAIR" INDICATES FEW OR NO CLOUDS BELOW 12,000 FEET WITH NO
SIGNIFICANT WEATHER AND/OR OBSTRUCTIONS TO VISIBILITY.

* THESE STATIONS ARE NOT UNDER NWS QUALITY CONTROL. THEY ALSO MAY NOT
  REPORT WEATHER SUCH AS PRECIPITATION OR FOG.

ILZ005-006-012>014-019>023-240600-
NORTHEAST ILLINOIS

CITY           SKY/WX    TMP DP  RH WIND       PRES   REMARKS
OHARE          CLOUDY    34  28  79 CALM      30.26S
MIDWAY         CLOUDY    37  32  82 NW9       30.27S
AURORA           N/A     32  30  92 W5        30.27F FOG     WCI  27
LANSING*       CLOUDY    36  35  96 CALM      30.26F
JOLIET*          N/A     35  32  90 N3        30.27F
WAUKEGAN         N/A     32  29  88 CALM      30.25S
DUPAGE AIRPORT   N/A     31  30  96 CALM      30.26S FOG
WHEELING         N/A     34  30  85 CALM      30.28R
KANKAKEE*      MOCLDY    36  34  91 W3        30.27S
MORRIS*          N/A     32  31  94 NW3       30.26F
LEWIS AIRPORT*   N/A     32  31  95 NW5       30.26F WCI  28
NORTHERLY ISL    N/A     37  31  79 W8          N/A
$$

WIZ051-052-058>065-066-070>072-240600-
SOUTHEAST WISCONSIN

CITY           SKY/WX    TMP DP  RH WIND       PRES   REMARKS
MILWAUKEE      MOCLDY    34  28  79 N7        30.26S WCI  28
KENOSHA*         N/A     32  28  85 W5        30.26R WCI  27
RACINE*        CLOUDY    33  29  85 NW5       30.27S WCI  29
BURLINGTON       N/A     30  27  88 NW7       30.26S WCI  24
WAUKESHA         N/A     28  23  80 NW3       30.27S
WEST BEND      CLOUDY    32  27  80 NW6       30.26S WCI  26
$$

INZ001>003-010>013-019-020-240600-
NORTHWEST INDIANA

CITY           SKY/WX    TMP DP  RH WIND       PRES   REMARKS
GARY*          CLOUDY    40  34  80 W5        30.26F
MICHIGAN CITY* NOT AVBL
RENSSELAER*    NOT AVBL
VALPARAISO     CLOUDY    38  34  85 NW3       30.26F
$$

LMZ740>746-240600-
SOUTHERN LAKE MICHIGAN

STATION/POSITION TIME  SKY/WX   TEMP WIND        PRES    VSBY
                                AIR  DIR/SP/G
                 (UTC)          (F)  (DEG/KT/KT) (MB)    (MI)
HARRISON CRIB    0440            37  330/  8/  9   N/A
BURNHAM HARBOR   0500            37  300/  6/  9   N/A
CALUMET HARBOR   0442            38  200/  1/  3 1024.1F
BURNS HARBOR     0440            37     CALM     1025.4S
MICHIGAN CITY    0440            36  220/  6/  6   N/A
$$

ABBREVIATIONS USED IN REMARKS
   TC - TEMPERATURE IN CELSIUS
  WCI - WIND CHILL INDEX
   HX - HEAT INDEX
  VSB - VISIBILITY
$$




USA.gov is the U.S. government's official web portal to all federal, state and local government web resources and services.